Location: Bazugues
(43.4465°N, 0.3432°E)
Time: 19:45:49
(UTC+00:00)

Cosmos 1241 Rocket - Pass Details

Date: 12 January 2026
Orbit: 942 x 1004 km, 65.8° (Epoch: 13 February)

Event Time Altitude Azimuth Distance (km) Brightness Sun altitude
Rises 17:32:49 0° 327° (NNW) 3,614 7.6 -8.8°
Reaches altitude 10° 17:35:21 10° 327° (NNW) 2,665 7.0 -9.2°
Maximum altitude 17:41:35 90° 242° (WSW) 950 4.5 -10.2°
Drops below altitude 10° 17:47:49 10° 149° (SSE) 2,667 6.7 -11.3°
Sets 17:50:21 0° 150° (SSE) 3,616 7.4 -11.7°
